| time (UTC) | temp F | wind direction | speed knots | gust knots | rain 1hr in | rain 24hr in | rain mn in | humidity % | barometer mb |
| 20260506014043 | 60 | 205 | 0.0 | 0.9 | 0.00 | 0.00 | 0.00 | 77 | 1017.5 |
| 20260506013542 | 60 | 206 | 0.0 | 0.9 | 0.00 | 0.00 | 0.00 | 77 | 1017.4 |
| 20260506013039 | 60 | 321 | 1.7 | 2.6 | 0.00 | 0.00 | 0.00 | 76 | 1017.5 |
| 20260506012535 | 61 | 215 | 0.0 | 0.0 | 0.00 | 0.00 | 0.00 | 76 | 1017.5 |
| 20260506012032 | 60 | 220 | 0.0 | 0.9 | 0.00 | 0.00 | 0.00 | 78 | 1017.6 |
| 20260506011530 | 60 | 213 | 0.0 | 0.9 | 0.00 | 0.00 | 0.00 | 78 | 1017.4 |
| 20260506011026 | 60 | 209 | 0.0 | 0.0 | 0.00 | 0.00 | 0.00 | 77 | 1017.5 |
| 20260506010525 | 61 | 205 | 0.0 | 0.9 | 0.00 | 0.00 | 0.00 | 77 | 1017.6 |
| 20260506010021 | 60 | 198 | 0.0 | 0.0 | 0.00 | 0.00 | 0.00 | 76 | 1017.5 |
| 20260506005518 | 60 | 199 | 0.0 | 1.7 | 0.00 | 0.00 | 0.00 | 76 | 1017.5 |
| 20260506005014 | 60 | 225 | 1.7 | 2.6 | 0.00 | 0.00 | 0.00 | 77 | 1017.4 |
| 20260506004512 | 60 | 220 | 1.7 | 1.7 | 0.00 | 0.00 | 0.00 | 77 | 1017.7 |
| 20260506004008 | 60 | 237 | 0.0 | 0.9 | 0.00 | 0.00 | 0.00 | 78 | 1017.5 |
| 20260506003504 | 60 | 218 | 0.9 | 1.7 | 0.00 | 0.00 | 0.00 | 77 | 1017.5 |
| 20260506003000 | 61 | 211 | 0.9 | 0.9 | 0.00 | 0.00 | 0.00 | 77 | 1017.6 |
| 20260506002457 | 60 | 252 | 0.0 | 1.7 | 0.00 | 0.00 | 0.00 | 77 | 1017.5 |
| 20260506001952 | 60 | 277 | 0.9 | 2.6 | 0.00 | 0.00 | 0.00 | 77 | 1017.5 |
| 20260506001449 | 61 | 207 | 1.7 | 2.6 | 0.00 | 0.00 | 0.00 | 76 | 1017.6 |
| 20260506000946 | 61 | 209 | 0.9 | 1.7 | 0.00 | 0.00 | 0.00 | 75 | 1017.6 |
| 20260506000445 | 61 | 346 | 1.7 | 2.6 | 0.00 | 0.00 | 0.00 | 75 | 1017.7 |
| 20260505235941 | 61 | 199 | 0.9 | 1.7 | 0.00 | 0.00 | 0.00 | 74 | 1017.7 |
| 20260505235439 | 61 | 211 | 0.0 | 0.9 | 0.00 | 0.00 | 0.00 | 74 | 1017.7 |
| 20260505234935 | 61 | 205 | 0.9 | 1.7 | 0.00 | 0.00 | 0.00 | 74 | 1018.0 |
| 20260505234433 | 60 | 224 | 0.9 | 0.9 | 0.00 | 0.00 | 0.00 | 75 | 1017.8 |
| 20260505233929 | 60 | 204 | 0.9 | 1.7 | 0.00 | 0.00 | 0.00 | 75 | 1017.7 |
| 20260505233427 | 61 | 194 | 0.9 | 0.9 | 0.00 | 0.00 | 0.00 | 75 | 1017.8 |
| 20260505232925 | 60 | 209 | 0.9 | 1.7 | 0.00 | 0.00 | 0.00 | 76 | 1017.9 |
| 20260505232422 | 60 | 210 | 0.9 | 1.7 | 0.00 | 0.00 | 0.00 | 76 | 1017.8 |
| 20260505231919 | 60 | 204 | 0.9 | 2.6 | 0.00 | 0.00 | 0.00 | 76 | 1017.9 |
| 20260505231416 | 60 | 254 | 1.7 | 1.7 | 0.00 | 0.00 | 0.00 | 77 | 1017.9 |
| 20260505230914 | 60 | 277 | 1.7 | 2.6 | 0.00 | 0.00 | 0.00 | 77 | 1018.0 |
| 20260505230412 | 60 | 234 | 0.9 | 1.7 | 0.00 | 0.00 | 0.00 | 76 | 1017.9 |
| 20260505225908 | 60 | 234 | 0.9 | 1.7 | 0.00 | 0.00 | 0.00 | 76 | 1017.9 |
| 20260505225406 | 60 | 215 | 1.7 | 2.6 | 0.00 | 0.00 | 0.00 | 76 | 1018.0 |
| 20260505224901 | 61 | 211 | 1.7 | 3.5 | 0.00 | 0.00 | 0.00 | 76 | 1017.9 |
| 20260505224358 | 61 | 205 | 0.9 | 2.6 | 0.00 | 0.00 | 0.00 | 75 | 1017.9 |
| 20260505223855 | 61 | 194 | 1.7 | 2.6 | 0.00 | 0.00 | 0.00 | 75 | 1018.1 |
| 20260505223352 | 61 | 206 | 0.9 | 1.7 | 0.00 | 0.00 | 0.00 | 73 | 1018.2 |
| 20260505222848 | 61 | 205 | 0.9 | 1.7 | 0.00 | 0.00 | 0.00 | 74 | 1018.0 |
| 20260505222344 | 62 | 206 | 0.0 | 1.7 | 0.00 | 0.00 | 0.00 | 73 | 1018.1 |
| 20260505221841 | 62 | 206 | 2.6 | 3.5 | 0.00 | 0.00 | 0.00 | 73 | 1018.2 |
| 20260505221338 | 62 | 208 | 0.0 | 0.9 | 0.00 | 0.00 | 0.00 | 73 | 1018.2 |
| 20260505220835 | 61 | 213 | 0.9 | 1.7 | 0.00 | 0.00 | 0.00 | 72 | 1018.1 |
| 20260505220332 | 61 | 203 | 0.9 | 1.7 | 0.00 | 0.00 | 0.00 | 73 | 1018.1 |
| 20260505215830 | 62 | 205 | 0.0 | 2.6 | 0.00 | 0.00 | 0.00 | 72 | 1018.1 |
| 20260505215328 | 62 | 205 | 0.9 | 1.7 | 0.00 | 0.00 | 0.00 | 71 | 1018.1 |
| 20260505214825 | 62 | 202 | 0.0 | 0.0 | 0.00 | 0.00 | 0.00 | 71 | 1018.4 |
| 20260505214323 | 61 | 200 | 0.0 | 0.9 | 0.00 | 0.00 | 0.00 | 73 | 1018.3 |
| 20260505213819 | 60 | 217 | 1.7 | 1.7 | 0.00 | 0.00 | 0.00 | 73 | 1018.5 |
| 20260505213318 | 61 | 218 | 0.9 | 1.7 | 0.00 | 0.00 | 0.00 | 73 | 1018.3 |
| 20260505212813 | 61 | 202 | 0.0 | 0.9 | 0.00 | 0.00 | 0.00 | 72 | 1018.3 |
| 20260505212311 | 61 | 216 | 0.9 | 1.7 | 0.00 | 0.00 | 0.00 | 73 | 1018.3 |
| 20260505211806 | 60 | 209 | 0.9 | 3.5 | 0.00 | 0.00 | 0.00 | 74 | 1018.3 |
| 20260505211304 | 60 | 208 | 0.9 | 1.7 | 0.00 | 0.00 | 0.00 | 74 | 1018.4 |
| 20260505210800 | 60 | 206 | 0.0 | 0.9 | 0.00 | 0.00 | 0.00 | 75 | 1018.5 |
| 20260505210258 | 59 | 225 | 0.9 | 1.7 | 0.00 | 0.00 | 0.00 | 76 | 1018.3 |
| 20260505205754 | 59 | 202 | 0.0 | 1.7 | 0.00 | 0.00 | 0.00 | 78 | 1018.6 |
| 20260505205253 | 59 | 206 | 0.9 | 0.9 | 0.00 | 0.00 | 0.00 | 79 | 1018.7 |
| 20260505204749 | 59 | 240 | 0.0 | 1.7 | 0.00 | 0.00 | 0.00 | 79 | 1018.5 |
| 20260505204247 | 59 | 234 | 0.0 | 0.9 | 0.00 | 0.00 | 0.00 | 78 | 1018.6 |
| 20260505203744 | 58 | 209 | 0.0 | 1.7 | 0.00 | 0.00 | 0.00 | 80 | 1018.5 |
| 20260505203241 | 59 | 227 | 0.9 | 2.6 | 0.00 | 0.00 | 0.00 | 79 | 1018.6 |
| 20260505202737 | 59 | 217 | 0.9 | 1.7 | 0.00 | 0.00 | 0.00 | 79 | 1018.6 |
| 20260505202233 | 59 | 204 | 0.9 | 0.9 | 0.00 | 0.00 | 0.00 | 78 | 1018.5 |
| 20260505201729 | 59 | 205 | 0.9 | 1.7 | 0.00 | 0.00 | 0.00 | 78 | 1018.7 |
| 20260505201228 | 59 | 200 | 0.0 | 0.9 | 0.00 | 0.00 | 0.00 | 78 | 1018.7 |
| 20260505200726 | 59 | 220 | 0.9 | 0.9 | 0.00 | 0.00 | 0.00 | 79 | 1018.8 |
| 20260505200222 | 59 | 268 | 0.9 | 1.7 | 0.00 | 0.00 | 0.00 | 80 | 1018.7 |
| 20260505195718 | 58 | 313 | 0.9 | 1.7 | 0.00 | 0.00 | 0.00 | 81 | 1018.8 |
| 20260505195215 | 59 | 202 | 0.0 | 0.9 | 0.00 | 0.00 | 0.00 | 80 | 1018.7 |
| 20260505194713 | 58 | 203 | 0.0 | 0.9 | 0.00 | 0.00 | 0.00 | 82 | 1018.9 |
| 20260505194209 | 58 | 235 | 0.9 | 2.6 | 0.00 | 0.00 | 0.00 | 83 | 1018.7 |
| 20260505193705 | 58 | 250 | 0.9 | 0.9 | 0.00 | 0.00 | 0.00 | 82 | 1018.7 |
| 20260505193202 | 57 | 207 | 0.0 | 0.9 | 0.00 | 0.00 | 0.00 | 83 | 1018.6 |
| 20260505192701 | 57 | 211 | 0.0 | 1.7 | 0.00 | 0.00 | 0.00 | 84 | 1018.9 |
| 20260505192158 | 57 | 212 | 0.0 | 0.9 | 0.00 | 0.00 | 0.00 | 86 | 1018.8 |
| 20260505191656 | 57 | 206 | 0.0 | 0.0 | 0.00 | 0.00 | 0.00 | 85 | 1018.7 |
| 20260505191154 | 56 | 209 | 0.9 | 2.6 | 0.00 | 0.00 | 0.00 | 86 | 1018.8 |
| 20260505190650 | 56 | 209 | 0.0 | 3.5 | 0.00 | 0.00 | 0.00 | 86 | 1018.8 |
| 20260505190150 | 56 | 203 | 1.7 | 2.6 | 0.00 | 0.00 | 0.00 | 86 | 1018.6 |
| 20260505185647 | 56 | 216 | 1.7 | 1.7 | 0.00 | 0.00 | 0.00 | 85 | 1018.8 |
| 20260505185143 | 56 | 199 | 0.0 | 0.9 | 0.00 | 0.00 | 0.00 | 84 | 1018.8 |
| 20260505184640 | 56 | 208 | 0.0 | 0.9 | 0.00 | 0.00 | 0.00 | 85 | 1018.6 |
| 20260505184137 | 56 | 203 | 0.0 | 0.9 | 0.00 | 0.00 | 0.00 | 86 | 1018.8 |
| 20260505183634 | 56 | 206 | 0.0 | 0.0 | 0.00 | 0.00 | 0.00 | 88 | 1018.7 |
| 20260505183132 | 55 | 224 | 0.9 | 0.9 | 0.00 | 0.00 | 0.00 | 89 | 1018.9 |
| 20260505182627 | 55 | 230 | 1.7 | 2.6 | 0.00 | 0.00 | 0.00 | 88 | 1018.9 |
| 20260505182124 | 55 | 219 | 0.0 | 0.0 | 0.00 | 0.00 | 0.00 | 89 | 1018.8 |
| 20260505181621 | 55 | 300 | 0.9 | 2.6 | 0.00 | 0.00 | 0.00 | 89 | 1018.8 |
| 20260505181118 | 55 | 209 | 0.0 | 0.0 | 0.00 | 0.00 | 0.00 | 91 | 1018.8 |
| 20260505180614 | 55 | 223 | 0.0 | 1.7 | 0.00 | 0.00 | 0.00 | 90 | 1018.8 |
| 20260505180112 | 54 | 205 | 0.0 | 1.7 | 0.00 | 0.00 | 0.00 | 90 | 1018.8 |
| 20260505175608 | 54 | 210 | 0.0 | 0.9 | 0.00 | 0.00 | 0.00 | 90 | 1018.7 |
| 20260505175104 | 54 | 210 | 0.0 | 0.0 | 0.00 | 0.00 | 0.00 | 92 | 1018.7 |
| 20260505174601 | 53 | 211 | 0.0 | 0.9 | 0.00 | 0.00 | 0.00 | 92 | 1018.8 |
| 20260505174057 | 54 | 221 | 0.9 | 2.6 | 0.00 | 0.00 | 0.00 | 91 | 1018.7 |
| 20260505173554 | 53 | 209 | 0.0 | 0.0 | 0.00 | 0.00 | 0.00 | 92 | 1018.7 |
| 20260505173051 | 54 | 202 | 0.0 | 0.9 | 0.00 | 0.00 | 0.00 | 91 | 1018.7 |
| 20260505172548 | 54 | 205 | 0.0 | 1.7 | 0.00 | 0.00 | 0.00 | 92 | 1018.7 |
| 20260505172045 | 54 | 199 | 0.0 | 0.9 | 0.00 | 0.00 | 0.00 | 92 | 1018.6 |
| 20260505171545 | 54 | 209 | 0.0 | 0.9 | 0.00 | 0.00 | 0.00 | 92 | 1018.5 |
| 20260505171042 | 54 | 197 | 0.0 | 0.9 | 0.00 | 0.00 | 0.00 | 92 | 1018.5 |
| 20260505170539 | 54 | 221 | 0.0 | 0.9 | 0.00 | 0.00 | 0.00 | 92 | 1018.5 |
| 20260505170035 | 53 | 205 | 0.0 | 0.0 | 0.00 | 0.00 | 0.00 | 93 | 1018.5 |
| 20260505165530 | 53 | 202 | 0.0 | 0.0 | 0.00 | 0.00 | 0.00 | 93 | 1018.4 |
| 20260505165026 | 53 | 202 | 0.0 | 0.0 | 0.00 | 0.00 | 0.00 | 95 | 1018.4 |
| 20260505164522 | 52 | 207 | 0.0 | 0.0 | 0.00 | 0.00 | 0.00 | 94 | 1018.5 |
| 20260505164021 | 52 | 205 | 0.0 | 0.0 | 0.00 | 0.00 | 0.00 | 94 | 1018.5 |
| 20260505163519 | 52 | 216 | 0.0 | 0.9 | 0.00 | 0.00 | 0.00 | 94 | 1018.4 |
| 20260505163015 | 52 | 208 | 0.0 | 0.9 | 0.00 | 0.00 | 0.00 | 94 | 1018.2 |
| 20260505162508 | 52 | 207 | 0.0 | 0.0 | 0.00 | 0.00 | 0.00 | 95 | 1018.3 |
| 20260505162006 | 52 | 200 | 0.0 | 0.9 | 0.00 | 0.00 | 0.00 | 95 | 1018.3 |
| 20260505161502 | 52 | 203 | 0.0 | 0.9 | 0.00 | 0.00 | 0.00 | 95 | 1018.3 |
| 20260505160959 | 52 | 210 | 0.0 | 1.7 | 0.00 | 0.00 | 0.00 | 96 | 1018.2 |
| 20260505160457 | 52 | 212 | 0.9 | 1.7 | 0.00 | 0.00 | 0.00 | 96 | 1018.2 |
| 20260505152934 | 51 | 209 | 0.9 | 1.7 | 0.00 | 0.00 | 0.00 | 98 | 1018.3 |
| 20260505152426 | 51 | 199 | 0.9 | 1.7 | 0.00 | 0.00 | 0.00 | 98 | 1018.2 |
| 20260505151926 | 51 | 206 | 0.0 | 0.9 | 0.00 | 0.00 | 0.00 | 98 | 1018.1 |
| 20260505151421 | 51 | 210 | 0.9 | 0.9 | 0.00 | 0.00 | 0.00 | 98 | 1018.1 |
| 20260505150919 | 51 | 208 | 0.0 | 0.9 | 0.00 | 0.00 | 0.00 | 98 | 1018.1 |
| 20260505150416 | 51 | 206 | 0.0 | 0.9 | 0.00 | 0.00 | 0.00 | 98 | 1018.0 |
| 20260505140341 | 51 | 203 | 0.0 | 0.0 | 0.00 | 0.00 | 0.00 | 98 | 1017.5 |
| 20260505130304 | 51 | 204 | 0.0 | 0.0 | 0.00 | 0.00 | 0.00 | 96 | 1017.2 |
| 20260505124754 | 52 | 202 | 0.0 | 1.7 | 0.00 | 0.00 | 0.00 | 94 | 1017.2 |
| 20260505124251 | 52 | 212 | 0.0 | 0.9 | 0.00 | 0.00 | 0.00 | 93 | 1017.2 |
| 20260505123747 | 52 | 203 | 0.0 | 0.9 | 0.00 | 0.00 | 0.00 | 92 | 1017.1 |
| 20260505123244 | 53 | 251 | 1.7 | 1.7 | 0.00 | 0.00 | 0.00 | 92 | 1017.1 |
| 20260505122740 | 52 | 201 | 0.0 | 0.0 | 0.00 | 0.00 | 0.00 | 91 | 1017.1 |
| 20260505122237 | 53 | 202 | 0.9 | 0.9 | 0.00 | 0.00 | 0.00 | 90 | 1017.2 |
| 20260505121734 | 53 | 210 | 0.0 | 0.0 | 0.00 | 0.00 | 0.00 | 90 | 1017.0 |
| 20260505121231 | 53 | 200 | 0.0 | 0.0 | 0.00 | 0.00 | 0.00 | 89 | 1017.0 |
| 20260505120727 | 53 | 206 | 0.0 | 0.9 | 0.00 | 0.00 | 0.00 | 89 | 1016.9 |
| 20260505120223 | 53 | 203 | 0.0 | 0.0 | 0.00 | 0.00 | 0.00 | 88 | 1016.9 |
| 20260505115722 | 53 | 208 | 0.0 | 0.0 | 0.00 | 0.00 | 0.00 | 89 | 1016.9 |
| 20260505115220 | 53 | 207 | 0.0 | 0.9 | 0.00 | 0.00 | 0.00 | 88 | 1017.0 |
| 20260505114717 | 53 | 187 | 0.0 | 0.0 | 0.00 | 0.00 | 0.00 | 89 | 1016.9 |
| 20260505114213 | 53 | 206 | 0.0 | 0.0 | 0.00 | 0.00 | 0.00 | 89 | 1016.9 |
| 20260505113710 | 53 | 200 | 0.0 | 0.0 | 0.00 | 0.00 | 0.00 | 88 | 1016.9 |
| 20260505113206 | 53 | 204 | 0.0 | 0.0 | 0.00 | 0.00 | 0.00 | 89 | 1016.9 |
| 20260505112703 | 53 | 194 | 0.0 | 0.0 | 0.00 | 0.00 | 0.00 | 89 | 1016.9 |
| 20260505112201 | 53 | 203 | 0.0 | 0.9 | 0.00 | 0.00 | 0.00 | 88 | 1017.0 |
| 20260505111700 | 53 | 204 | 0.0 | 0.0 | 0.00 | 0.00 | 0.00 | 88 | 1017.1 |
| 20260505111156 | 53 | 211 | 0.0 | 0.9 | 0.00 | 0.00 | 0.00 | 88 | 1016.9 |
| 20260505110652 | 53 | 202 | 0.0 | 0.0 | 0.00 | 0.00 | 0.00 | 88 | 1016.8 |
| 20260505110150 | 53 | 201 | 0.0 | 0.9 | 0.00 | 0.00 | 0.00 | 88 | 1016.6 |
| 20260505102125 | 53 | 203 | 0.0 | 0.9 | 0.00 | 0.00 | 0.00 | 88 | 1016.6 |
| 20260505101624 | 53 | 192 | 0.0 | 0.9 | 0.00 | 0.00 | 0.00 | 88 | 1016.5 |
| 20260505101120 | 53 | 204 | 0.0 | 0.0 | 0.00 | 0.00 | 0.00 | 88 | 1016.4 |
| 20260505100616 | 53 | 187 | 0.0 | 0.9 | 0.00 | 0.00 | 0.00 | 87 | 1016.7 |
| 20260505100113 | 53 | 205 | 0.0 | 0.9 | 0.00 | 0.00 | 0.00 | 88 | 1016.6 |
| 20260505095609 | 53 | 206 | 0.9 | 1.7 | 0.00 | 0.00 | 0.00 | 88 | 1016.6 |
| 20260505095106 | 53 | 211 | 0.9 | 1.7 | 0.00 | 0.00 | 0.00 | 87 | 1016.5 |
| 20260505094603 | 54 | 203 | 0.0 | 1.7 | 0.00 | 0.00 | 0.00 | 87 | 1016.4 |
| 20260505094059 | 54 | 201 | 0.0 | 0.9 | 0.00 | 0.00 | 0.00 | 86 | 1016.6 |
| 20260505093555 | 54 | 205 | 0.9 | 0.9 | 0.00 | 0.00 | 0.00 | 86 | 1016.5 |
| 20260505093053 | 54 | 208 | 0.0 | 1.7 | 0.00 | 0.00 | 0.00 | 86 | 1016.5 |
| 20260505092550 | 55 | 203 | 0.0 | 0.9 | 0.00 | 0.00 | 0.00 | 86 | 1016.3 |
| 20260505092048 | 54 | 204 | 0.0 | 1.7 | 0.00 | 0.00 | 0.00 | 86 | 1016.3 |
| 20260505091545 | 54 | 203 | 0.0 | 0.0 | 0.00 | 0.00 | 0.00 | 86 | 1016.4 |
| 20260505091043 | 54 | 206 | 0.0 | 0.9 | 0.00 | 0.00 | 0.00 | 87 | 1016.3 |
| 20260505090541 | 54 | 209 | 0.0 | 1.7 | 0.00 | 0.00 | 0.00 | 86 | 1016.3 |
| 20260505090038 | 54 | 203 | 0.0 | 3.5 | 0.00 | 0.00 | 0.00 | 86 | 1016.2 |
| 20260505085536 | 54 | 202 | 0.9 | 0.9 | 0.00 | 0.00 | 0.00 | 86 | 1016.2 |
| 20260505085034 | 54 | 218 | 1.7 | 1.7 | 0.00 | 0.00 | 0.00 | 86 | 1016.1 |
| 20260505084532 | 54 | 234 | 0.9 | 1.7 | 0.00 | 0.00 | 0.00 | 86 | 1016.2 |
| 20260505084030 | 55 | 189 | 0.9 | 1.7 | 0.00 | 0.00 | 0.00 | 86 | 1016.1 |
| 20260505083526 | 55 | 201 | 0.0 | 0.9 | 0.00 | 0.00 | 0.00 | 86 | 1016.2 |
| 20260505083023 | 55 | 204 | 0.0 | 0.9 | 0.00 | 0.00 | 0.00 | 85 | 1016.1 |
| 20260505082519 | 55 | 212 | 0.0 | 0.9 | 0.00 | 0.00 | 0.00 | 85 | 1016.0 |
| 20260505082016 | 55 | 203 | 0.0 | 1.7 | 0.00 | 0.00 | 0.00 | 85 | 1016.0 |
| 20260505081512 | 55 | 206 | 0.0 | 0.9 | 0.00 | 0.00 | 0.00 | 85 | 1015.9 |
| 20260505081009 | 56 | 195 | 0.9 | 0.9 | 0.00 | 0.00 | 0.00 | 85 | 1015.9 |
| 20260505080506 | 56 | 224 | 0.9 | 1.7 | 0.00 | 0.00 | 0.00 | 84 | 1015.9 |
| 20260505080002 | 56 | 197 | 0.0 | 1.7 | 0.00 | 0.00 | 0.00 | 84 | 1016.0 |
| 20260505075458 | 56 | 199 | 0.9 | 0.9 | 0.00 | 0.00 | 0.00 | 84 | 1016.1 |
| 20260505074955 | 56 | 199 | 0.9 | 2.6 | 0.00 | 0.00 | 0.00 | 84 | 1015.9 |
| 20260505074453 | 56 | 194 | 0.9 | 2.6 | 0.00 | 0.00 | 0.00 | 84 | 1016.0 |
| 20260505073950 | 56 | 211 | 0.0 | 2.6 | 0.00 | 0.00 | 0.00 | 84 | 1015.6 |
| 20260505073447 | 56 | 205 | 1.7 | 5.2 | 0.00 | 0.00 | 0.00 | 83 | 1015.6 |
| 20260505072944 | 57 | 200 | 1.7 | 3.5 | 0.00 | 0.00 | 0.00 | 83 | 1015.6 |
| 20260505072440 | 57 | 229 | 0.9 | 1.7 | 0.00 | 0.00 | 0.00 | 82 | 1015.4 |
| 20260505071937 | 57 | 218 | 1.7 | 2.6 | 0.00 | 0.00 | 0.00 | 82 | 1015.4 |
| 20260505071433 | 57 | 210 | 0.9 | 1.7 | 0.00 | 0.00 | 0.00 | 81 | 1015.4 |
| 20260505070931 | 58 | 204 | 0.0 | 0.9 | 0.00 | 0.00 | 0.00 | 80 | 1015.3 |
| 20260505070427 | 58 | 201 | 0.0 | 0.9 | 0.00 | 0.00 | 0.00 | 80 | 1015.2 |
| 20260505065923 | 58 | 202 | 0.0 | 0.9 | 0.00 | 0.00 | 0.00 | 79 | 1015.3 |
| 20260505065420 | 58 | 204 | 0.0 | 0.9 | 0.00 | 0.00 | 0.00 | 79 | 1015.2 |
| 20260505064916 | 58 | 212 | 0.9 | 2.6 | 0.00 | 0.00 | 0.00 | 78 | 1015.0 |
| 20260505064414 | 59 | 251 | 2.6 | 2.6 | 0.00 | 0.00 | 0.00 | 78 | 1015.1 |
| 20260505063912 | 59 | 183 | 0.0 | 2.6 | 0.00 | 0.00 | 0.00 | 77 | 1015.4 |
| 20260505063408 | 59 | 202 | 0.9 | 0.9 | 0.00 | 0.00 | 0.00 | 76 | 1015.0 |
| 20260505062904 | 60 | 203 | 0.9 | 1.7 | 0.00 | 0.00 | 0.00 | 76 | 1015.1 |
| 20260505062402 | 60 | 200 | 3.5 | 3.5 | 0.00 | 0.00 | 0.00 | 75 | 1014.8 |
| 20260505061858 | 60 | 209 | 1.7 | 2.6 | 0.00 | 0.00 | 0.00 | 74 | 1015.0 |
| 20260505061357 | 61 | 207 | 0.9 | 2.6 | 0.00 | 0.00 | 0.00 | 74 | 1015.0 |
| 20260505060854 | 61 | 217 | 0.0 | 0.9 | 0.00 | 0.00 | 0.00 | 74 | 1014.8 |
| 20260505060351 | 61 | 187 | 0.9 | 3.5 | 0.00 | 0.00 | 0.00 | 74 | 1014.8 |
| 20260505055847 | 61 | 191 | 2.6 | 2.6 | 0.00 | 0.00 | 0.00 | 74 | 1014.8 |
| 20260505055342 | 62 | 205 | 0.9 | 0.9 | 0.00 | 0.00 | 0.00 | 75 | 1014.8 |
| 20260505054840 | 62 | 203 | 0.0 | 1.7 | 0.00 | 0.00 | 0.00 | 74 | 1014.9 |
| 20260505054337 | 62 | 197 | 0.0 | 1.7 | 0.00 | 0.00 | 0.00 | 74 | 1014.6 |
| 20260505053835 | 62 | 176 | 1.7 | 2.6 | 0.00 | 0.00 | 0.00 | 75 | 1014.4 |
| 20260505053332 | 62 | 202 | 0.0 | 2.6 | 0.00 | 0.00 | 0.00 | 75 | 1014.6 |
| 20260505052829 | 62 | 191 | 0.9 | 2.6 | 0.00 | 0.00 | 0.00 | 75 | 1014.6 |
| 20260505052325 | 63 | 208 | 0.0 | 1.7 | 0.00 | 0.00 | 0.00 | 75 | 1014.6 |
| 20260505051823 | 63 | 200 | 0.0 | 0.9 | 0.00 | 0.00 | 0.00 | 75 | 1014.5 |
| 20260505051320 | 63 | 203 | 0.9 | 2.6 | 0.00 | 0.00 | 0.00 | 75 | 1014.6 |
| 20260505050818 | 63 | 194 | 1.7 | 3.5 | 0.00 | 0.00 | 0.00 | 75 | 1014.5 |
| 20260505050317 | 64 | 200 | 0.9 | 1.7 | 0.00 | 0.00 | 0.00 | 76 | 1014.6 |
| 20260505041746 | 66 | 200 | 0.0 | 0.9 | 0.00 | 0.00 | 0.00 | 74 | 1013.9 |
| 20260505041243 | 66 | 201 | 0.0 | 0.0 | 0.00 | 0.00 | 0.00 | 73 | 1013.8 |
| 20260505040740 | 66 | 201 | 0.0 | 0.0 | 0.00 | 0.00 | 0.00 | 73 | 1013.7 |
| 20260505040238 | 66 | 200 | 0.0 | 0.0 | 0.00 | 0.00 | 0.00 | 74 | 1013.6 |
| 20260505035735 | 65 | 201 | 0.0 | 0.0 | 0.00 | 0.00 | 0.00 | 74 | 1013.6 |
| 20260505035230 | 65 | 197 | 0.0 | 0.0 | 0.00 | 0.00 | 0.00 | 74 | 1013.4 |
| 20260505034727 | 66 | 193 | 0.0 | 0.0 | 0.00 | 0.00 | 0.00 | 74 | 1013.5 |
| 20260505034224 | 66 | 195 | 0.0 | 0.0 | 0.00 | 0.00 | 0.00 | 74 | 1013.5 |
| 20260505033721 | 66 | 195 | 0.0 | 0.0 | 0.00 | 0.00 | 0.00 | 73 | 1013.4 |
| 20260505033219 | 66 | 193 | 0.0 | 0.9 | 0.00 | 0.00 | 0.00 | 73 | 1013.4 |
| 20260505032717 | 66 | 199 | 0.0 | 0.0 | 0.00 | 0.00 | 0.00 | 72 | 1013.2 |
| 20260505032212 | 67 | 193 | 0.0 | 0.0 | 0.00 | 0.00 | 0.00 | 72 | 1013.3 |
| 20260505031710 | 67 | 217 | 0.0 | 0.0 | 0.00 | 0.00 | 0.00 | 71 | 1013.2 |
| 20260505031206 | 67 | 197 | 0.0 | 1.7 | 0.00 | 0.00 | 0.00 | 71 | 1013.1 |
| 20260505030703 | 67 | 201 | 0.0 | 0.9 | 0.00 | 0.00 | 0.00 | 70 | 1013.1 |
| 20260505030159 | 68 | 197 | 0.0 | 2.6 | 0.00 | 0.00 | 0.00 | 69 | 1013.1 |
| 20260505025655 | 68 | 200 | 0.0 | 0.9 | 0.00 | 0.00 | 0.00 | 68 | 1013.1 |
| 20260505025153 | 69 | 214 | 0.0 | 0.9 | 0.00 | 0.00 | 0.00 | 67 | 1013.0 |
| 20260505024651 | 70 | 203 | 0.0 | 0.9 | 0.00 | 0.00 | 0.00 | 65 | 1013.0 |
| 20260505024147 | 70 | 200 | 0.9 | 1.7 | 0.00 | 0.00 | 0.00 | 64 | 1012.9 |
| 20260505023645 | 71 | 206 | 0.9 | 1.7 | 0.00 | 0.00 | 0.00 | 63 | 1012.8 |
| 20260505023142 | 72 | 205 | 0.0 | 0.9 | 0.00 | 0.00 | 0.00 | 61 | 1012.9 |
| 20260505022640 | 72 | 208 | 0.9 | 0.9 | 0.00 | 0.00 | 0.00 | 60 | 1013.0 |
| 20260505022137 | 72 | 204 | 0.0 | 0.9 | 0.00 | 0.00 | 0.00 | 60 | 1012.9 |
| 20260505021633 | 72 | 200 | 0.9 | 1.7 | 0.00 | 0.00 | 0.00 | 60 | 1012.9 |
| 20260505021130 | 72 | 213 | 0.0 | 1.7 | 0.00 | 0.00 | 0.00 | 61 | 1012.8 |
| 20260505020626 | 72 | 206 | 0.0 | 1.7 | 0.00 | 0.00 | 0.00 | 60 | 1012.8 |
| 20260505020122 | 72 | 205 | 0.9 | 1.7 | 0.00 | 0.00 | 0.00 | 59 | 1013.0 |
| 20260505015619 | 72 | 210 | 0.9 | 2.6 | 0.00 | 0.00 | 0.00 | 59 | 1012.9 |
| 20260505015116 | 72 | 189 | 0.9 | 1.7 | 0.00 | 0.00 | 0.00 | 59 | 1012.8 |
| 20260505014612 | 72 | 209 | 0.0 | 1.7 | 0.00 | 0.00 | 0.00 | 60 | 1012.9 |